Home > Weather > Finse > Past weeks

Flag for Norway Weather for the Past 2 Weeks in Finse, Norway

Now
9 °F

Frigid.


Feels Like: -1 °F
Forecast: -11 / 10 °F
Wind: 6 mph from North

Location: Finsevatn

Current Time: Feb 12, 2016 at 11:36:06 AM

Latest Report: Feb 12, 2016 at 10:00 AM


Visibility: N/A

Pressure: 29.77 "Hg (25.36 "Hg at 1221m altitude)

Humidity: 67%

Dew point: 0 °F

Location of FinseLocation

Historic Weather in Finse — Graph

°F

Finse Temperature Yesterday

Maximum temperature yesterday: 22 °F (at 2:00 AM)
Minimum temperature yesterday: -6 °F (at 8:00 PM)
Average temperature yesterday: 13 °F

High & Low Weather Summary for the Past Weeks

 TemperatureHumidityPressure
High34 °F (Feb 7, 11:00 AM)96% (Jan 29, 11:00 AM)29.96 "Hg (Jan 29, 11:00 AM)
Low-6 °F (Feb 11, 8:00 PM)62% (Feb 11, 2:00 PM)28.67 "Hg (Feb 8, 10:00 AM)
Average22 °F89%29.26 "Hg
* Reported Jan 28 10:00 AM — Feb 12 10:00 AM, Finse, Weather by CustomWeather, © 2016

Note: Actual official high and low records may vary slightly from our data, if they occured in-between our weather recording intervals... More about our weather records

Advertising

Finse Weather History for the Previous 24 Hours

 ConditionsComfort  
Time TempWeatherWind HumidityBarometerVisibility
10:00 AM
Fri, Feb 12
9 °FFrigid.6 mph67%29.77 "HgN/A
9:00 AM6 °FFrigid.7 mph72%29.79 "HgN/A
8:00 AM7 °FFrigid.7 mph70%29.79 "HgN/A
7:00 AM4 °FFrigid.7 mph71%29.83 "HgN/A
5:00 AM3 °FFrigid.8 mph74%29.85 "HgN/A
4:00 AM6 °FFrigid.6 mph76%29.83 "HgN/A
9:00 PM
Thu, Feb 11
-3 °FFrigid.2 mph80%29.93 "HgN/A
8:00 PM-6 °FFrigid.1 mph78%29.95 "HgN/A
7:00 PM0 °FFrigid.2 mph76%29.88 "HgN/A
6:00 PM3 °FFrigid.2 mph75%29.85 "HgN/A
5:00 PM6 °FFrigid.3 mph70%29.80 "HgN/A
4:00 PM10 °FCold.3 mph65%29.74 "HgN/A
3:00 PM13 °FCold.1 mph66%29.70 "HgN/A
2:00 PM16 °FCold.2 mph62%29.66 "HgN/A
1:00 PM16 °FCold.3 mph64%29.64 "HgN/A
12:00 PM14 °FCold.3 mph68%29.65 "HgN/A
11:00 AM15 °FCold.3 mph68%29.63 "HgN/A
Weather by CustomWeather, © 2016

See weather overviewHow to use our weather pages